contact:dominique.lefevre@mio.osupytheas.fr, maurice.libes@osupytheas.fr, didier.mallarino@osupytheas.fr
Project:EMSO http://www.emso-fr.org/EMSO-France
Depth: 2436.0 m
Title:EMSO Ligure Ouest : Data MII capteur AQUADOPP
Date,Latitude,Longitude,X_East,Y_North,Z_Up,Amplitude_X,Amplitude_Y,Amplitude_Z,Batterie,SoundSpeed,Heading,Pitch,Roll,Pressure,TIS,Speed,Direction
, degrees North, degrees East, m.s-1, m.s-1,m.s-1, 1, 1, 1, Volt, m.s-1, degree, degree, degree, dbar, degree_C, m.s-1, degree
2023-01-03T13:04:03,42.805,6.029,-0.031,-0.015,-0.013,101.0,102.0,101.0,13.4,1505.1,316.6,-0.8,1.9,2471.386,13.27,0.034,244.2
2023-01-03T13:07:03,42.805,6.029,-0.028,-0.002,0.023,102.0,101.0,101.0,13.4,1505.2,331.4,-0.8,1.8,2471.343,13.28,0.028,265.9
2023-01-03T13:10:03,42.805,6.029,-0.04,-0.017,-0.026,102.0,101.0,101.0,13.4,1505.2,317.5,-0.8,1.8,2471.246,13.28,0.043,247.0
2023-01-03T13:13:03,42.805,6.029,-0.043,0.006,-0.006,102.0,101.0,102.0,13.4,1505.2,328.4,-0.7,1.8,2471.193,13.28,0.043,277.9
2023-01-03T13:16:03,42.805,6.029,-0.038,0.012,-0.002,102.0,102.0,101.0,13.4,1505.2,328.4,-0.8,1.8,2471.148,13.28,0.039,287.5
2023-01-03T13:19:03,42.805,6.029,-0.045,-0.003,-0.014,99.0,102.0,102.0,13.4,1505.2,325.8,-0.7,1.8,2471.117,13.29,0.045,266.2
2023-01-03T13:22:03,42.805,6.029,-0.045,0.025,0.002,101.0,102.0,101.0,13.4,1505.2,338.0,-0.8,1.8,2471.093,13.29,0.051,299.1
2023-01-03T13:25:03,42.805,6.029,-0.061,-0.009,-0.035,101.0,101.0,101.0,13.4,1505.2,320.9,-0.7,1.8,2471.115,13.29,0.061,261.6
2023-01-03T13:28:03,42.805,6.029,-0.033,0.009,0.017,101.0,104.0,101.0,13.4,1505.2,317.7,-0.8,1.8,2471.093,13.29,0.034,285.3
2023-01-03T13:31:03,42.805,6.029,-0.01,0.023,0.049,102.0,101.0,101.0,13.4,1505.2,338.8,-0.8,1.8,2471.08,13.29,0.025,336.5
2023-01-03T13:34:03,42.805,6.029,-0.066,0.002,-0.007,101.0,101.0,101.0,13.4,1505.2,329.6,-0.8,1.8,2471.101,13.29,0.066,271.7
2023-01-03T13:37:03,42.805,6.029,-0.045,0.0,-0.019,102.0,101.0,101.0,13.4,1505.2,321.8,-0.8,1.8,2471.099,13.29,0.045,270.0
2023-01-03T13:40:03,42.805,6.029,-0.031,-0.019,-0.045,101.0,102.0,101.0,13.4,1505.2,321.5,-0.7,1.9,2471.089,13.29,0.036,238.5
2023-01-03T13:43:03,42.805,6.029,-0.013,0.008,-0.013,102.0,100.0,101.0,13.4,1505.2,332.6,-0.8,1.9,2471.117,13.29,0.015,301.6
2023-01-03T13:46:03,42.805,6.029,-0.049,0.016,0.021,101.0,101.0,101.0,13.4,1505.2,324.1,-0.7,1.9,2471.105,13.29,0.051,288.1
2023-01-03T13:49:03,42.805,6.029,-0.063,0.0,-0.003,100.0,101.0,101.0,13.4,1505.2,319.8,-0.7,1.8,2471.111,13.29,0.062,270.0
2023-01-03T13:52:03,42.805,6.029,-0.037,0.014,0.004,101.0,101.0,100.0,13.4,1505.2,337.2,-0.8,1.8,2471.135,13.29,0.039,290.7
2023-01-03T13:55:03,42.805,6.029,-0.049,-0.012,-0.009,101.0,102.0,101.0,13.4,1505.2,318.0,-0.7,1.8,2471.112,13.29,0.05,256.2
2023-01-03T13:58:03,42.805,6.029,-0.061,0.001,-0.02,101.0,101.0,101.0,13.3,1505.2,331.4,-0.8,1.8,2471.128,13.29,0.061,270.9
2023-01-03T14:04:03,42.805,6.029,-0.041,-0.007,0.005,101.0,100.0,101.0,13.4,1505.2,323.2,-0.8,1.8,2471.194,13.28,0.041,260.3
2023-01-03T14:07:03,42.805,6.029,-0.02,0.0,-0.007,100.0,101.0,101.0,13.4,1505.2,335.3,-0.8,1.8,2471.182,13.28,0.02,270.0
2023-01-03T14:10:03,42.805,6.029,-0.03,0.007,-0.015,101.0,101.0,101.0,13.4,1505.2,333.0,-0.7,1.8,2471.216,13.29,0.03,283.1
2023-01-03T14:13:03,42.805,6.029,-0.057,0.0,-0.02,101.0,101.0,102.0,13.4,1505.2,321.8,-0.8,1.8,2471.161,13.29,0.057,270.0
2023-01-03T14:16:03,42.805,6.029,-0.05,-0.012,-0.011,101.0,101.0,100.0,13.4,1505.2,316.4,-0.8,1.8,2471.204,13.29,0.051,256.5
2023-01-03T14:19:03,42.805,6.029,-0.055,0.018,-0.006,102.0,101.0,100.0,13.3,1505.2,328.7,-0.8,1.8,2471.18,13.29,0.057,288.1
2023-01-03T14:31:03,42.805,6.029,-0.025,0.0,-0.017,102.0,101.0,101.0,13.3,1505.2,319.8,-0.8,1.8,2471.35,13.28,0.025,270.0
2023-01-03T14:34:03,42.805,6.029,-0.023,-0.013,0.017,102.0,101.0,101.0,13.4,1505.2,331.8,-0.8,1.8,2471.337,13.28,0.026,240.5
2023-01-03T14:37:03,42.805,6.029,-0.037,-0.005,-0.015,101.0,101.0,101.0,13.3,1505.2,331.8,-0.8,1.8,2471.255,13.28,0.037,262.3
2023-01-03T15:04:03,42.805,6.029,-0.072,0.007,-0.016,101.0,101.0,101.0,13.4,1505.2,327.0,-0.8,1.9,2471.57,13.28,0.072,275.5
2023-01-03T15:49:03,42.805,6.029,-0.028,-0.001,0.0,102.0,101.0,102.0,13.4,1505.2,324.9,-0.8,1.8,2471.496,13.28,0.028,268.0
2023-01-03T15:52:03,42.805,6.029,-0.025,-0.001,0.014,102.0,102.0,103.0,13.3,1505.2,322.3,-0.8,1.8,2471.392,13.28,0.025,267.7
2023-01-03T15:55:03,42.805,6.029,-0.042,-0.003,-0.014,102.0,101.0,102.0,13.3,1505.2,322.3,-0.8,1.8,2471.352,13.28,0.042,265.9
2023-01-03T15:58:03,42.805,6.029,-0.052,-0.008,-0.011,102.0,101.0,102.0,13.3,1505.2,331.6,-0.7,1.8,2471.304,13.29,0.052,261.3
2023-01-03T16:04:03,42.805,6.029,-0.031,-0.009,-0.002,102.0,101.0,101.0,13.4,1505.2,322.3,-0.8,1.8,2471.302,13.28,0.032,253.8
2023-01-03T16:07:03,42.805,6.029,-0.02,0.003,-0.016,101.0,102.0,101.0,13.4,1505.2,326.0,-0.8,1.8,2471.294,13.28,0.02,278.5
2023-01-03T16:10:03,42.805,6.029,-0.032,-0.013,-0.029,102.0,102.0,101.0,13.3,1505.2,336.3,-0.8,1.9,2471.29,13.29,0.034,247.9
2023-01-03T16:13:03,42.805,6.029,-0.07,0.011,-0.004,102.0,101.0,101.0,13.4,1505.2,319.4,-0.7,1.9,2471.228,13.29,0.07,278.9
2023-01-03T16:16:03,42.805,6.029,-0.066,0.01,-0.025,102.0,102.0,102.0,13.3,1505.2,324.9,-0.8,1.9,2471.277,13.29,0.066,278.6
2023-01-03T16:19:03,42.805,6.029,-0.035,0.009,0.021,102.0,101.0,101.0,13.4,1505.2,316.6,-0.8,1.8,2471.226,13.29,0.036,284.4
2023-01-03T16:22:03,42.805,6.029,-0.036,0.007,-0.02,102.0,100.0,101.0,13.3,1505.2,322.8,-0.8,1.8,2471.217,13.29,0.036,281.0
2023-01-03T16:25:03,42.805,6.029,-0.049,0.014,-0.003,103.0,101.0,101.0,13.4,1505.2,324.0,-0.8,1.8,2471.195,13.29,0.05,285.9
2023-01-03T16:28:03,42.805,6.029,-0.045,0.018,-0.008,101.0,102.0,101.0,13.4,1505.2,327.8,-0.8,1.8,2471.21,13.29,0.048,291.8
2023-01-03T16:31:03,42.805,6.029,-0.037,0.013,-0.009,103.0,102.0,101.0,13.4,1505.2,327.7,-0.8,1.8,2471.237,13.29,0.039,289.4
2023-01-03T16:34:03,42.805,6.029,-0.022,-0.001,0.016,100.0,102.0,101.0,13.4,1505.2,315.5,-0.8,1.8,2471.197,13.29,0.022,267.4
2023-01-03T16:37:03,42.805,6.029,-0.033,-0.003,0.009,102.0,101.0,102.0,13.4,1505.2,323.2,-0.8,1.8,2471.209,13.29,0.033,264.8
2023-01-03T16:40:03,42.805,6.029,-0.033,0.006,0.007,102.0,102.0,101.0,13.4,1505.2,321.7,-0.7,1.9,2471.193,13.29,0.033,280.3
2023-01-03T16:43:03,42.805,6.029,-0.037,0.001,-0.019,102.0,102.0,102.0,13.3,1505.2,330.2,-0.7,1.8,2471.159,13.29,0.037,271.5
2023-01-03T16:46:03,42.805,6.029,-0.026,0.006,0.018,101.0,102.0,102.0,13.3,1505.2,321.8,-0.8,1.8,2471.192,13.29,0.026,283.0
2023-01-03T16:49:03,42.805,6.029,-0.053,0.022,-0.024,101.0,101.0,101.0,13.4,1505.2,334.6,-0.8,1.8,2471.202,13.29,0.057,292.5
2023-01-03T16:52:03,42.805,6.029,-0.031,-0.023,-0.028,104.0,102.0,101.0,13.4,1505.2,317.7,-0.8,1.8,2471.205,13.29,0.038,233.4
2023-01-03T16:55:03,42.805,6.029,-0.042,0.002,-0.012,101.0,102.0,102.0,13.4,1505.2,321.4,-0.8,1.8,2471.239,13.29,0.042,272.7
2023-01-03T16:58:03,42.805,6.029,-0.034,0.001,-0.005,102.0,101.0,102.0,13.3,1505.2,322.0,-0.8,1.8,2471.215,13.29,0.034,271.7
2023-01-03T17:04:03,42.805,6.029,-0.029,0.02,-0.005,103.0,102.0,101.0,13.4,1505.2,327.9,-0.8,1.8,2471.298,13.28,0.035,304.6
2023-01-03T17:07:03,42.805,6.029,-0.044,0.026,-0.014,101.0,102.0,102.0,13.4,1505.2,331.4,-0.8,1.8,2471.298,13.28,0.051,300.6
2023-01-03T17:10:03,42.805,6.029,-0.037,0.005,-0.003,102.0,102.0,101.0,13.4,1505.2,323.7,-0.7,1.8,2471.283,13.29,0.037,277.7
2023-01-03T17:13:03,42.805,6.029,-0.026,-0.004,-0.019,101.0,101.0,101.0,13.4,1505.2,334.2,-0.8,1.8,2471.257,13.29,0.026,261.3
2023-01-03T17:16:03,42.805,6.029,-0.045,-0.01,-0.007,102.0,101.0,101.0,13.4,1505.2,326.0,-0.8,1.8,2471.26,13.29,0.046,257.5
2023-01-03T17:19:03,42.805,6.029,-0.034,0.002,-0.017,102.0,102.0,102.0,13.4,1505.2,321.9,-0.7,1.8,2471.257,13.29,0.034,273.4
2023-01-03T17:22:03,42.805,6.029,-0.056,0.018,-0.033,101.0,101.0,102.0,13.4,1505.2,335.0,-0.8,1.8,2471.268,13.29,0.058,287.8
2023-01-03T17:25:03,42.805,6.029,-0.033,0.013,-0.018,101.0,101.0,101.0,13.4,1505.2,320.6,-0.7,1.8,2471.173,13.29,0.035,291.5
2023-01-03T17:28:03,42.805,6.029,-0.029,-0.001,-0.001,101.0,101.0,101.0,13.4,1505.2,336.1,-0.8,1.8,2471.256,13.29,0.029,268.0
2023-01-03T17:31:03,42.805,6.029,-0.047,0.015,-0.011,101.0,102.0,101.0,13.4,1505.2,332.0,-0.8,1.8,2471.242,13.29,0.049,287.7
2023-01-03T17:34:03,42.805,6.029,-0.046,0.0,-0.013,101.0,100.0,101.0,13.4,1505.2,326.3,-0.8,1.8,2471.222,13.29,0.046,270.0
2023-01-03T17:37:03,42.805,6.029,-0.04,0.015,0.023,100.0,102.0,101.0,13.4,1505.2,318.3,-0.7,1.8,2471.234,13.29,0.042,290.6
2023-01-03T17:40:03,42.805,6.029,-0.041,0.006,-0.004,102.0,102.0,101.0,13.3,1505.2,329.1,-0.8,1.8,2471.274,13.29,0.041,278.3
2023-01-03T17:43:03,42.805,6.029,-0.037,-0.003,-0.003,101.0,101.0,101.0,13.3,1505.2,319.4,-0.7,1.8,2471.202,13.29,0.037,265.4
2023-01-03T17:46:03,42.805,6.029,-0.044,0.004,0.013,102.0,101.0,101.0,13.3,1505.2,330.1,-0.8,1.8,2471.22,13.29,0.044,275.2
2023-01-03T17:49:03,42.805,6.029,-0.038,0.0,-0.022,103.0,100.0,101.0,13.3,1505.2,323.4,-0.8,1.8,2471.221,13.29,0.038,270.0
2023-01-03T17:52:03,42.805,6.029,-0.049,-0.012,-0.03,101.0,101.0,101.0,13.4,1505.2,333.0,-0.8,1.8,2471.234,13.29,0.05,256.2
2023-01-03T17:55:03,42.805,6.029,-0.028,0.024,0.012,102.0,101.0,101.0,13.4,1505.2,330.8,-0.7,1.8,2471.239,13.29,0.036,310.6
2023-01-03T17:58:03,42.805,6.029,-0.039,0.027,0.02,101.0,101.0,102.0,13.3,1505.2,328.8,-0.8,1.8,2471.229,13.29,0.047,304.7
2023-01-03T18:04:03,42.805,6.029,-0.035,0.019,0.014,100.0,101.0,101.0,13.4,1505.2,322.3,-0.8,1.8,2471.326,13.28,0.039,298.5
2023-01-03T18:07:03,42.805,6.029,-0.032,0.018,-0.003,101.0,103.0,101.0,13.4,1505.2,338.8,-0.8,1.8,2471.276,13.29,0.036,299.4
2023-01-03T18:10:03,42.805,6.029,-0.053,-0.002,-0.032,102.0,100.0,102.0,13.4,1505.2,317.7,-0.8,1.8,2471.252,13.29,0.053,267.8
2023-01-03T18:13:03,42.805,6.029,-0.042,-0.006,-0.029,101.0,102.0,101.0,13.4,1505.2,325.6,-0.8,1.8,2471.232,13.29,0.042,261.9
2023-01-03T18:16:03,42.805,6.029,-0.038,0.003,0.0,101.0,101.0,101.0,13.4,1505.2,335.2,-0.8,1.8,2471.271,13.29,0.038,274.5
2023-01-03T18:19:03,42.805,6.029,-0.037,0.0,0.0,101.0,101.0,101.0,13.4,1505.2,318.1,-0.8,1.8,2471.235,13.29,0.037,270.0
2023-01-03T18:22:03,42.805,6.029,-0.056,0.013,0.017,102.0,101.0,101.0,13.3,1505.2,321.9,-0.7,1.8,2471.221,13.29,0.057,283.1
2023-01-03T18:25:03,42.805,6.029,-0.059,0.008,0.001,103.0,101.0,101.0,13.4,1505.2,320.0,-0.7,1.8,2471.252,13.29,0.059,277.7
2023-01-03T18:28:03,42.805,6.029,-0.041,0.004,0.001,101.0,101.0,101.0,13.4,1505.2,321.4,-0.8,1.8,2471.245,13.29,0.041,275.6
2023-01-03T18:31:03,42.805,6.029,-0.025,0.013,0.019,100.0,102.0,102.0,13.3,1505.2,326.5,-0.7,1.8,2471.244,13.29,0.028,297.5
2023-01-03T18:34:03,42.805,6.029,-0.035,0.017,0.008,102.0,101.0,102.0,13.4,1505.2,331.2,-0.8,1.8,2471.207,13.29,0.038,295.9
2023-01-03T18:37:03,42.805,6.029,-0.028,0.013,0.006,102.0,102.0,101.0,13.4,1505.2,331.8,-0.8,1.8,2471.201,13.29,0.03,294.9
2023-01-03T18:40:03,42.805,6.029,-0.033,-0.001,-0.028,102.0,101.0,101.0,13.3,1505.2,325.1,-0.8,1.8,2471.215,13.29,0.033,268.3
2023-01-03T18:43:03,42.805,6.029,-0.04,-0.006,-0.026,101.0,100.0,102.0,13.3,1505.2,321.4,-0.8,1.8,2471.208,13.29,0.04,261.5
2023-01-03T18:46:03,42.805,6.029,-0.038,0.006,-0.013,103.0,101.0,102.0,13.4,1505.2,337.8,-0.8,1.8,2471.216,13.29,0.038,279.0
2023-01-03T18:49:03,42.805,6.029,-0.048,0.008,0.003,102.0,102.0,103.0,13.4,1505.2,319.5,-0.7,1.8,2471.234,13.29,0.048,279.5
2023-01-03T18:52:03,42.805,6.029,-0.013,0.009,0.01,101.0,102.0,102.0,13.4,1505.2,332.6,-0.8,1.8,2471.226,13.29,0.015,304.7
2023-01-03T18:55:03,42.805,6.029,-0.027,0.012,0.017,102.0,102.0,101.0,13.4,1505.2,333.8,-0.8,1.8,2471.24,13.29,0.029,294.0
2023-01-03T18:58:03,42.805,6.029,-0.044,0.003,0.006,102.0,101.0,101.0,13.4,1505.2,316.5,-0.7,1.7,2471.208,13.29,0.044,273.9
2023-01-03T19:04:03,42.805,6.029,-0.027,0.006,0.02,102.0,102.0,102.0,13.4,1505.2,318.4,-0.8,1.8,2471.249,13.28,0.027,282.5
2023-01-03T19:07:03,42.805,6.029,-0.048,0.01,0.027,104.0,102.0,101.0,13.4,1505.2,320.8,-0.8,1.8,2471.26,13.28,0.049,281.8
2023-01-03T19:10:03,42.805,6.029,-0.024,0.016,0.017,102.0,102.0,102.0,13.4,1505.2,338.3,-0.7,1.8,2471.265,13.29,0.028,303.7
2023-01-03T19:13:03,42.805,6.029,-0.033,-0.009,-0.021,103.0,103.0,102.0,13.4,1505.2,318.1,-0.8,1.8,2471.239,13.29,0.034,254.7
2023-01-03T19:16:03,42.805,6.029,-0.035,0.007,0.006,103.0,104.0,102.0,13.3,1505.2,319.3,-0.8,1.8,2471.207,13.29,0.035,281.3
2023-01-03T19:19:03,42.805,6.029,-0.038,0.001,-0.021,103.0,102.0,103.0,13.4,1505.2,324.6,-0.8,1.8,2471.204,13.29,0.038,271.5
2023-01-03T19:22:03,42.805,6.029,-0.039,0.001,-0.018,103.0,102.0,102.0,13.4,1505.2,332.6,-0.8,1.8,2471.202,13.29,0.039,271.5
2023-01-03T19:25:03,42.805,6.029,-0.047,-0.012,-0.015,102.0,102.0,102.0,13.3,1505.2,319.9,-0.8,1.8,2471.196,13.29,0.048,255.7
2023-01-03T19:28:03,42.805,6.029,-0.044,0.022,-0.004,102.0,103.0,103.0,13.4,1505.2,331.3,-0.8,1.8,2471.192,13.29,0.049,296.6
2023-01-03T19:31:03,42.805,6.029,-0.045,0.023,0.005,103.0,103.0,103.0,13.4,1505.2,334.1,-0.7,1.8,2471.208,13.29,0.05,297.1
2023-01-03T19:34:03,42.805,6.029,-0.046,0.001,-0.01,104.0,102.0,102.0,13.3,1505.2,327.1,-0.7,1.8,2471.2,13.29,0.046,271.2
2023-01-03T19:37:03,42.805,6.029,-0.037,0.019,-0.002,102.0,104.0,102.0,13.4,1505.2,322.5,-0.8,1.8,2471.183,13.29,0.041,297.2
2023-01-03T19:40:03,42.805,6.029,-0.046,0.0,-0.001,104.0,102.0,102.0,13.4,1505.2,325.1,-0.7,1.8,2471.186,13.29,0.046,270.0
2023-01-03T19:43:03,42.805,6.029,-0.038,0.02,0.029,102.0,103.0,103.0,13.3,1505.2,328.7,-0.7,1.8,2471.204,13.29,0.042,297.8
2023-01-03T19:46:03,42.805,6.029,-0.019,0.016,0.032,104.0,102.0,102.0,13.3,1505.2,326.3,-0.8,1.8,2471.192,13.29,0.024,310.1
2023-01-03T19:49:03,42.805,6.029,-0.028,-0.002,-0.033,103.0,103.0,102.0,13.4,1505.2,323.5,-0.8,1.8,2471.199,13.29,0.028,265.9
2023-01-03T19:52:03,42.805,6.029,-0.025,-0.007,-0.001,103.0,103.0,103.0,13.4,1505.2,329.7,-0.8,1.8,2471.178,13.29,0.025,254.4
2023-01-03T19:55:03,42.805,6.029,-0.03,0.013,0.008,102.0,104.0,103.0,13.4,1505.2,324.6,-0.8,1.8,2471.195,13.29,0.032,293.4
2023-01-03T19:58:03,42.805,6.029,-0.052,0.006,-0.031,103.0,102.0,102.0,13.4,1505.2,336.4,-0.8,1.8,2471.177,13.29,0.052,276.6
2023-01-03T20:04:03,42.805,6.029,-0.017,0.007,-0.009,102.0,102.0,103.0,13.4,1505.2,324.6,-0.8,1.8,2471.251,13.28,0.018,292.4
2023-01-03T20:07:03,42.805,6.029,-0.056,0.006,-0.024,103.0,103.0,102.0,13.4,1505.2,324.0,-0.8,1.8,2471.253,13.28,0.056,276.1
2023-01-03T20:10:03,42.805,6.029,-0.032,0.008,0.025,103.0,103.0,103.0,13.4,1505.2,315.5,-0.8,1.8,2471.232,13.29,0.032,284.0
2023-01-03T20:13:03,42.805,6.029,-0.039,-0.002,-0.018,104.0,103.0,101.0,13.4,1505.2,322.9,-0.7,1.8,2471.197,13.29,0.039,267.1
2023-01-03T20:16:03,42.805,6.029,-0.04,0.012,0.008,103.0,104.0,102.0,13.4,1505.2,321.3,-0.7,1.8,2471.156,13.29,0.041,286.7
2023-01-03T20:19:03,42.805,6.029,-0.034,0.024,-0.011,103.0,103.0,102.0,13.4,1505.2,335.6,-0.8,1.8,2471.219,13.29,0.041,305.2
2023-01-03T20:22:03,42.805,6.029,-0.051,0.01,0.011,102.0,103.0,102.0,13.4,1505.2,318.9,-0.8,1.8,2471.173,13.29,0.051,281.1
2023-01-03T20:25:03,42.805,6.029,-0.033,-0.008,-0.053,103.0,103.0,104.0,13.3,1505.2,317.5,-0.7,1.8,2471.164,13.29,0.033,256.4
2023-01-03T20:28:03,42.805,6.029,-0.032,0.007,0.005,102.0,104.0,102.0,13.4,1505.2,318.8,-0.7,1.8,2471.187,13.29,0.032,282.3
2023-01-03T20:31:03,42.805,6.029,-0.054,-0.004,-0.025,105.0,102.0,102.0,13.4,1505.2,326.7,-0.7,1.8,2471.15,13.29,0.054,265.8
2023-01-03T20:34:03,42.805,6.029,-0.039,0.016,-0.003,102.0,102.0,103.0,13.3,1505.2,335.2,-0.8,1.8,2471.119,13.29,0.042,292.3
2023-01-03T20:37:03,42.805,6.029,-0.024,0.015,-0.02,102.0,103.0,102.0,13.3,1505.2,326.3,-0.8,1.8,2471.167,13.29,0.028,302.0
2023-01-03T20:40:03,42.805,6.029,-0.055,0.005,-0.013,104.0,104.0,102.0,13.4,1505.2,326.0,-0.8,1.8,2471.115,13.29,0.055,275.2
2023-01-03T20:43:03,42.805,6.029,-0.029,-0.003,-0.024,103.0,103.0,102.0,13.4,1505.2,326.0,-0.7,1.8,2471.187,13.29,0.029,264.1
2023-01-03T20:46:03,42.805,6.029,-0.042,0.017,-0.016,103.0,104.0,102.0,13.4,1505.2,318.9,-0.8,1.8,2471.201,13.29,0.045,292.0
2023-01-03T20:49:03,42.805,6.029,-0.046,0.005,0.006,103.0,104.0,103.0,13.4,1505.2,320.6,-0.8,1.8,2471.169,13.29,0.046,276.2
2023-01-03T20:52:03,42.805,6.029,-0.04,0.006,0.0,104.0,103.0,102.0,13.4,1505.2,321.8,-0.7,1.8,2471.146,13.29,0.04,278.5
2023-01-03T20:55:03,42.805,6.029,-0.019,0.008,-0.007,104.0,104.0,102.0,13.4,1505.2,328.7,-0.8,1.8,2471.1,13.29,0.02,292.8
2023-01-03T20:58:03,42.805,6.029,-0.037,0.009,0.0,104.0,103.0,103.0,13.4,1505.2,321.8,-0.8,1.8,2471.158,13.29,0.038,283.7
2023-01-03T21:04:03,42.805,6.029,-0.057,0.004,0.016,103.0,105.0,103.0,13.3,1505.2,316.0,-0.7,1.8,2471.241,13.28,0.057,274.0
2023-01-03T21:07:03,42.805,6.029,-0.01,0.013,0.035,103.0,105.0,103.0,13.4,1505.2,320.7,-0.7,1.8,2471.216,13.29,0.016,322.4
2023-01-03T21:10:03,42.805,6.029,-0.02,0.003,0.019,103.0,104.0,103.0,13.4,1505.2,334.6,-0.7,1.8,2471.182,13.29,0.02,278.5
2023-01-03T21:13:04,42.805,6.029,-0.012,0.002,-0.017,105.0,104.0,103.0,13.4,1505.2,328.7,-0.7,1.8,2471.158,13.29,0.012,279.5
2023-01-03T21:16:03,42.805,6.029,-0.027,-0.022,-0.002,106.0,104.0,103.0,13.3,1505.2,322.5,-0.8,1.8,2471.192,13.29,0.034,230.8
2023-01-03T21:19:03,42.805,6.029,-0.029,0.011,0.018,105.0,103.0,103.0,13.4,1505.2,325.6,-0.8,1.8,2471.178,13.29,0.031,290.8
2023-01-03T21:22:03,42.805,6.029,-0.019,0.001,0.006,103.0,104.0,102.0,13.4,1505.2,317.5,-0.7,1.8,2471.141,13.29,0.019,273.0
2023-01-03T21:25:03,42.805,6.029,-0.029,0.009,-0.003,105.0,103.0,103.0,13.4,1505.2,332.2,-0.7,1.8,2471.137,13.29,0.03,287.2
2023-01-03T21:28:03,42.805,6.029,-0.027,-0.002,-0.029,103.0,103.0,102.0,13.4,1505.2,320.8,-0.8,1.8,2471.102,13.29,0.027,265.8
2023-01-03T21:31:03,42.805,6.029,-0.056,0.008,-0.051,103.0,104.0,104.0,13.3,1505.2,320.4,-0.8,1.8,2471.148,13.29,0.056,278.1
2023-01-03T21:34:03,42.805,6.029,-0.044,0.022,-0.029,104.0,103.0,102.0,13.4,1505.2,334.2,-0.8,1.8,2471.131,13.29,0.049,296.6
2023-01-03T21:37:03,42.805,6.029,-0.027,-0.004,-0.014,103.0,105.0,103.0,13.4,1505.2,324.0,-0.8,1.9,2471.158,13.29,0.027,261.6
2023-01-03T21:40:03,42.805,6.029,-0.036,0.008,0.011,102.0,103.0,104.0,13.4,1505.2,331.5,-0.8,1.8,2471.119,13.29,0.036,282.5
2023-01-03T21:43:03,42.805,6.029,-0.021,0.021,0.032,103.0,104.0,102.0,13.4,1505.2,335.4,-0.7,1.8,2471.127,13.29,0.029,315.0
2023-01-03T21:46:03,42.805,6.029,-0.03,0.015,0.002,103.0,104.0,102.0,13.3,1505.2,318.4,-0.7,1.8,2471.15,13.29,0.033,296.6
2023-01-03T21:49:03,42.805,6.029,-0.028,-0.016,-0.014,104.0,104.0,102.0,13.4,1505.2,320.9,-0.8,1.8,2471.148,13.29,0.032,240.3
2023-01-03T21:52:03,42.805,6.029,-0.033,0.02,-0.009,104.0,103.0,102.0,13.4,1505.2,337.0,-0.8,1.8,2471.109,13.29,0.038,301.2
2023-01-03T21:55:03,42.805,6.029,-0.024,0.012,-0.009,104.0,101.0,103.0,13.4,1505.2,327.3,-0.8,1.8,2471.104,13.29,0.026,296.6
2023-01-03T21:58:03,42.805,6.029,-0.031,0.0,0.013,103.0,103.0,102.0,13.4,1505.2,320.4,-0.8,1.8,2471.12,13.29,0.03,270.0
2023-01-03T22:04:03,42.805,6.029,-0.017,-0.015,-0.017,105.0,104.0,102.0,13.4,1505.2,318.8,-0.8,1.8,2471.142,13.28,0.022,228.6
2023-01-03T22:07:03,42.805,6.029,-0.032,0.0,-0.014,103.0,103.0,103.0,13.4,1505.2,318.6,-0.8,1.8,2471.121,13.29,0.032,270.0
2023-01-03T22:10:03,42.805,6.029,-0.029,0.003,-0.006,103.0,104.0,102.0,13.4,1505.2,320.6,-0.8,1.8,2471.14,13.29,0.029,275.9
2023-01-03T22:13:03,42.805,6.029,-0.041,0.015,-0.009,104.0,103.0,102.0,13.4,1505.2,334.1,-0.8,1.8,2471.155,13.29,0.043,290.1
2023-01-03T22:16:03,42.805,6.029,-0.034,0.003,0.026,102.0,102.0,102.0,13.4,1505.2,331.9,-0.7,1.8,2471.146,13.29,0.034,275.0
2023-01-03T22:19:03,42.805,6.029,-0.024,0.018,0.0,103.0,102.0,102.0,13.4,1505.2,328.4,-0.8,1.8,2471.111,13.29,0.03,306.9
2023-01-03T22:22:03,42.805,6.029,-0.011,0.006,0.024,104.0,103.0,102.0,13.4,1505.2,317.5,-0.8,1.8,2471.117,13.29,0.012,298.6
2023-01-03T22:25:03,42.805,6.029,-0.028,0.004,-0.005,103.0,103.0,103.0,13.4,1505.2,326.1,-0.7,1.8,2471.127,13.29,0.028,278.1
2023-01-03T22:28:03,42.805,6.029,-0.026,-0.01,-0.018,103.0,103.0,102.0,13.4,1505.2,321.8,-0.8,1.8,2471.085,13.29,0.027,249.0
2023-01-03T22:31:03,42.805,6.029,-0.035,0.016,-0.009,103.0,103.0,102.0,13.4,1505.2,336.2,-0.7,1.8,2471.094,13.29,0.038,294.6
2023-01-03T22:34:03,42.805,6.029,-0.049,0.004,-0.009,103.0,102.0,102.0,13.4,1505.2,319.0,-0.7,1.8,2471.115,13.29,0.049,274.7
2023-01-03T22:37:03,42.805,6.029,-0.016,0.012,-0.011,102.0,103.0,102.0,13.4,1505.2,318.5,-0.7,1.8,2471.106,13.29,0.02,306.9
2023-01-03T22:40:03,42.805,6.029,-0.045,0.0,-0.003,103.0,102.0,101.0,13.4,1505.2,326.3,-0.8,1.8,2471.115,13.29,0.045,270.0
2023-01-03T22:43:03,42.805,6.029,-0.018,0.009,0.023,102.0,102.0,103.0,13.4,1505.2,331.0,-0.8,1.8,2471.093,13.29,0.02,296.6
2023-01-03T22:46:03,42.805,6.029,-0.026,0.006,0.032,103.0,103.0,101.0,13.3,1505.2,333.4,-0.8,1.8,2471.106,13.29,0.026,283.0
2023-01-03T22:49:03,42.805,6.029,-0.038,-0.003,-0.002,102.0,101.0,103.0,13.3,1505.2,323.6,-0.8,1.8,2471.074,13.29,0.038,265.5
2023-01-03T22:52:03,42.805,6.029,-0.041,-0.002,-0.06,102.0,103.0,103.0,13.4,1505.2,335.6,-0.8,1.8,2471.118,13.29,0.041,267.2
2023-01-03T22:55:03,42.805,6.029,-0.037,0.024,0.016,102.0,101.0,102.0,13.3,1505.2,319.4,-0.8,1.8,2471.1,13.29,0.044,303.0
2023-01-03T22:58:03,42.805,6.029,-0.036,0.012,-0.01,103.0,102.0,103.0,13.4,1505.2,328.2,-0.8,1.8,2471.073,13.29,0.037,288.4
2023-01-03T23:04:03,42.805,6.029,-0.025,-0.023,-0.019,103.0,102.0,101.0,13.3,1505.2,319.0,-0.8,1.8,2471.173,13.29,0.033,227.4
2023-01-03T23:07:03,42.805,6.029,-0.043,-0.014,-0.013,101.0,102.0,102.0,13.4,1505.2,316.9,-0.8,1.8,2471.133,13.29,0.045,252.0
2023-01-03T23:10:03,42.805,6.029,-0.019,0.01,0.017,103.0,101.0,102.0,13.3,1505.2,329.1,-0.7,1.8,2471.13,13.29,0.021,297.8
2023-01-03T23:13:03,42.805,6.029,-0.025,-0.024,-0.038,102.0,100.0,102.0,13.3,1505.2,321.8,-0.8,1.8,2471.107,13.29,0.034,226.2
2023-01-03T23:16:03,42.805,6.029,-0.041,0.0,0.002,103.0,101.0,102.0,13.4,1505.2,323.4,-0.7,1.8,2471.092,13.29,0.041,270.0
2023-01-03T23:19:03,42.805,6.029,-0.005,-0.011,-0.021,102.0,103.0,102.0,13.4,1505.2,318.9,-0.8,1.8,2471.117,13.29,0.012,204.4
2023-01-03T23:22:03,42.805,6.029,-0.024,0.021,0.007,101.0,102.0,101.0,13.4,1505.2,335.0,-0.7,1.8,2471.122,13.29,0.031,311.2
2023-01-03T23:25:03,42.805,6.029,-0.029,-0.005,0.005,102.0,102.0,101.0,13.3,1505.2,320.0,-0.8,1.8,2471.117,13.29,0.029,260.2
2023-01-03T23:28:03,42.805,6.029,-0.047,0.031,0.016,102.0,101.0,101.0,13.4,1505.2,332.7,-0.7,1.8,2471.092,13.29,0.056,303.4
2023-01-03T23:31:03,42.805,6.029,-0.015,-0.002,-0.019,101.0,102.0,101.0,13.4,1505.2,321.3,-0.7,1.8,2471.094,13.29,0.015,262.4
2023-01-03T23:34:03,42.805,6.029,-0.023,0.02,0.025,102.0,103.0,101.0,13.4,1505.2,335.7,-0.8,1.8,2471.092,13.29,0.03,311.0
2023-01-03T23:37:03,42.805,6.029,-0.012,-0.005,-0.026,102.0,102.0,102.0,13.3,1505.2,318.6,-0.7,1.8,2471.099,13.29,0.013,247.4
2023-01-03T23:40:03,42.805,6.029,-0.02,-0.004,0.004,101.0,101.0,102.0,13.4,1505.2,335.8,-0.8,1.8,2471.096,13.29,0.02,258.7
2023-01-03T23:43:03,42.805,6.029,-0.013,-0.016,-0.03,101.0,102.0,101.0,13.4,1505.2,317.4,-0.8,1.8,2471.058,13.29,0.02,219.1
2023-01-03T23:46:03,42.805,6.029,-0.029,0.01,-0.012,102.0,101.0,102.0,13.4,1505.2,329.1,-0.8,1.8,2471.071,13.29,0.03,289.0
2023-01-03T23:49:03,42.805,6.029,-0.023,0.012,0.008,102.0,102.0,101.0,13.3,1505.2,332.1,-0.8,1.9,2471.119,13.29,0.025,297.6
2023-01-03T23:52:03,42.805,6.029,-0.047,0.001,0.003,101.0,102.0,102.0,13.4,1505.2,317.0,-0.7,1.8,2471.073,13.29,0.047,271.2
2023-01-03T23:55:03,42.805,6.029,-0.032,-0.012,-0.017,100.0,103.0,103.0,13.3,1505.2,328.2,-0.7,1.8,2471.129,13.29,0.034,249.4
2023-01-03T23:58:03,42.805,6.029,-0.026,0.001,0.038,102.0,102.0,102.0,13.4,1505.2,315.5,-0.8,1.8,2471.144,13.29,0.026,272.2
